Total_Precipitation_Accumulation
1.24 1.73 2.56 2.69 2.48 2.34 2.27 2.34 2.41 2.27 2.24 2.20 2.15 2.17 2.26 2.30 2.39 2.36 2.26 2.28 2.31 2.34 2.21 1.98 1.86 1.78 1.80 1.85 1.77 1.62 1.52 1.50 1.72 1.87 2.03 2.19 2.39 2.56 2.70 2.84 2.75 2.16 2.05
1.04 1.56 2.32 2.41 2.15 2.00 2.08 2.07 2.14 2.05 1.98 2.02 2.05 2.05 1.95 1.97 2.08 2.11 2.10 2.19 2.21 2.22 2.04 1.90 1.72 1.55 1.56 1.56 1.56 1.40 1.39 1.69 2.04 2.28 2.62 2.71 2.78 2.77 2.76 2.84 2.83 2.22 2.04
0.95 1.28 1.85 2.06 1.95 1.90 1.89 1.77 1.82 1.83 1.80 1.98 2.01 1.98 1.86 1.80 1.99 2.10 2.12 2.09 2.21 2.16 1.90 1.79 1.58 1.40 1.40 1.42 1.34 1.31 1.45 1.84 2.41 2.82 2.97 2.67 2.34 2.59 2.64 2.73 2.61 2.05 1.93
0.84 0.99 1.34 1.70 1.73 1.67 1.64 1.64 1.66 1.63 1.64 1.79 1.81 1.83 1.81 1.77 1.98 2.15 2.10 2.06 2.23 2.06 1.87 1.70 1.55 1.35 1.25 1.27 1.30 1.39 1.59 1.94 2.40 2.88 2.73 2.36 1.98 2.17 2.31 2.21 2.12 1.87 1.76
0.73 0.81 1.13 1.44 1.48 1.49 1.50 1.64 1.62 1.49 1.48 1.63 1.72 1.74 1.77 1.83 1.98 2.14 2.09 2.08 2.22 2.20 2.00 1.76 1.59 1.36 1.29 1.24 1.25 1.43 1.69 2.05 2.41 2.50 2.06 2.13 2.26 2.16 2.03 1.93 1.96 1.76 1.50
0.71 0.80 1.07 1.31 1.29 1.36 1.40 1.61 1.57 1.48 1.43 1.53 1.65 1.65 1.70 1.80 2.04 2.21 2.14 2.14 2.16 2.10 1.89 1.70 1.51 1.32 1.23 1.21 1.35 1.50 1.80 2.15 2.15 1.71 1.58 1.75 1.69 1.92 1.83 1.80 1.74 1.52 1.26
0.73 0.88 0.98 1.23 1.29 1.40 1.54 1.67 1.59 1.45 1.35 1.41 1.48 1.45 1.60 1.86 2.11 2.29 2.32 2.26 2.18 2.08 1.80 1.60 1.44 1.27 1.20 1.25 1.41 1.48 1.72 2.03 1.78 1.49 1.44 1.59 1.42 1.60 1.72 1.73 1.71 1.45 1.18
0.70 0.90 0.99 1.23 1.32 1.39 1.53 1.70 1.70 1.49 1.40 1.43 1.54 1.51 1.62 1.88 2.13 2.29 2.47 2.47 2.30 2.12 1.78 1.57 1.34 1.19 1.19 1.28 1.43 1.49 1.64 1.64 1.37 1.25 1.24 1.27 1.24 1.38 1.59 1.51 1.48 1.36 1.13
0.78 0.84 0.96 1.06 1.26 1.35 1.49 1.70 1.73 1.64 1.55 1.61 1.75 1.63 1.70 1.92 2.12 2.25 2.47 2.44 2.28 2.12 1.82 1.57 1.30 1.13 1.18 1.26 1.40 1.49 1.62 1.65 1.38 1.37 1.23 1.11 1.07 1.25 1.51 1.39 1.32 1.33 1.19
1.04 0.90 0.92 0.93 1.18 1.32 1.37 1.57 1.80 1.71 1.64 1.67 1.75 1.76 2.03 2.18 2.21 2.27 2.44 2.45 2.30 2.10 1.78 1.63 1.38 1.19 1.24 1.27 1.41 1.60 1.74 1.58 1.43 1.46 1.29 0.92 1.01 1.29 1.57 1.56 1.52 1.52 1.35
1.24 1.19 1.18 1.09 1.09 1.25 1.30 1.50 1.98 1.98 1.90 1.89 1.95 2.18 2.49 2.78 2.76 2.81 2.71 2.69 2.60 2.32 2.08 1.91 1.73 1.45 1.36 1.29 1.56 1.73 1.56 1.54 1.73 1.62 1.32 0.97 1.06 1.53 1.78 1.80 1.73 1.70 1.65
1.48 1.45 1.60 1.39 1.19 1.21 1.27 1.85 2.51 2.40 2.34 2.43 2.55 2.66 2.99 3.19 3.45 3.01 3.24 3.29 3.26 3.08 2.78 2.58 2.48 2.01 1.50 1.27 1.55 1.71 1.51 1.53 1.71 1.46 1.18 1.09 1.22 1.67 1.93 1.84 1.80 1.77 1.73
1.87 1.68 1.57 1.64 1.59 1.63 1.80 1.98 2.29 2.63 2.76 2.84 2.86 2.85 3.11 3.02 3.12 3.10 3.44 3.89 3.85 3.29 2.83 2.90 2.84 2.26 1.99 2.12 2.07 1.87 1.74 1.58 1.68 1.44 1.33 1.35 1.47 1.84 2.10 1.95 1.94 1.88 1.69
2.45 2.40 2.40 2.28 2.23 2.27 2.17 2.04 2.11 2.29 2.36 2.43 2.55 2.60 2.82 3.14 3.21 3.32 3.56 3.51 3.42 3.13 3.21 2.98 3.01 2.74 2.49 2.29 2.20 2.27 2.18 1.92 1.88 1.85 1.80 1.74 1.81 2.04 2.25 2.14 2.03 2.01 1.89
2.94 3.21 3.74 3.66 3.13 2.84 2.59 2.33 2.03 2.19 2.06 1.87 2.04 2.36 2.52 2.72 2.99 3.13 3.00 2.99 2.65 2.68 2.91 2.98 2.65 2.79 2.71 2.65 2.54 2.46 2.47 2.19 2.02 1.97 2.02 2.20 2.14 2.12 2.32 2.40 2.30 2.26 2.22
3.79 3.84 4.05 4.61 3.99 3.32 2.83 2.54 2.31 2.16 2.21 2.01 2.09 2.09 2.34 2.51 2.58 2.63 2.57 2.65 2.47 2.50 2.59 2.58 2.53 2.80 2.87 2.75 2.39 2.18 2.18 2.18 2.10 1.98 2.16 2.28 2.27 2.07 2.20 2.54 2.72 2.68 2.69
4.36 4.51 4.61 4.94 4.65 4.17 3.62 3.05 2.57 2.39 2.23 2.20 2.26 2.03 2.08 2.22 2.24 2.32 2.35 2.35 2.39 2.30 2.29 2.25 2.29 2.50 2.49 2.40 2.20 2.02 2.05 2.08 2.12 2.11 2.09 2.20 2.24 2.26 2.23 2.40 2.65 2.74 2.93
5.03 5.28 5.32 5.10 5.11 4.76 4.13 3.56 3.17 2.93 2.67 2.41 2.21 2.04 1.86 1.94 1.97 2.10 2.02 2.02 2.05 1.99 1.98 2.15 2.19 2.32 2.44 2.47 2.43 2.15 2.19 2.23 2.08 2.17 2.18 2.18 2.49 2.27 2.50 2.64 2.64 2.61 2.98
6.21 6.64 6.43 5.80 5.42 4.97 4.41 3.93 3.78 3.60 3.20 2.75 2.49 2.28 2.08 1.89 1.83 1.94 2.02 2.08 1.80 1.85 1.92 1.81 2.09 2.22 2.46 2.50 2.09 2.12 1.99 1.98 2.00 1.86 2.11 2.04 2.23 2.35 2.58 2.62 2.69 2.59 2.95
6.54 7.26 7.17 6.53 5.73 5.07 4.73 4.32 4.16 3.83 3.37 2.85 2.62 2.48 2.19 2.03 1.83 1.89 1.81 1.76 1.57 1.76 2.01 2.11 2.50 2.41 2.31 2.30 1.89 2.10 1.92 1.67 1.76 1.87 1.87 2.03 2.09 1.93 2.23 2.56 2.78 2.33 2.69
5.57 6.15 6.04 5.44 4.98 4.48 4.02 3.51 3.45 3.24 2.93 2.65 2.38 2.12 2.07 1.99 1.84 1.93 1.84 1.95 1.69 1.75 1.82 1.81 2.06 2.19 2.09 2.08 2.43 2.51 2.07 1.69 1.72 1.74 1.74 1.99 2.03 2.04 2.37 2.79 2.95 2.84 2.47
4.08 4.33 3.82 3.62 3.64 3.34 3.13 3.09 3.03 2.85 2.53 2.29 2.13 2.10 1.75 1.75 1.74 1.67 1.92 1.80 1.73 1.89 1.89 1.90 2.06 2.16 2.08 2.13 2.38 2.69 2.43 2.37 2.05 1.53 1.78 1.92 1.93 2.14 2.25 2.41 2.73 3.02 2.70
2.88 2.86 2.62 2.57 2.89 2.91 2.92 2.95 2.96 2.92 2.73 2.45 2.11 2.07 1.73 1.58 1.62 1.71 1.72 1.81 1.89 1.62 1.84 1.98 1.96 2.05 2.12 2.07 2.09 2.45 2.46 2.44 2.14 1.65 1.60 1.68 1.86 2.16 2.21 2.36 2.23 2.46 2.65
1.96 2.08 2.34 2.42 2.56 2.51 2.63 2.55 2.46 2.28 2.11 1.98 1.89 1.93 1.92 1.71 1.63 1.55 1.59 1.83 1.95 1.71 1.91 1.56 1.68 1.96 2.11 1.97 2.02 1.91 1.89 2.04 2.20 2.13 1.84 1.67 1.76 1.92 2.06 2.15 2.30 2.48 2.59
1.53 1.78 2.19 2.29 2.34 2.28 2.26 2.32 2.44 2.38 2.37 2.20 2.08 2.23 2.20 2.18 1.95 1.61 1.60 1.82 1.97 1.92 1.98 1.84 2.04 1.87 1.79 1.78 1.85 1.90 1.92 1.86 1.75 2.01 2.13 1.99 1.85 1.65 1.69 1.79 1.93 2.05 2.11
1.39 1.50 1.77 1.93 2.11 2.16 2.21 2.31 2.29 2.31 2.46 2.35 2.20 2.09 2.00 2.04 1.99 1.85 1.82 2.03 2.02 1.99 2.08 2.03 2.03 1.90 1.86 1.86 1.78 1.77 2.04 2.04 1.90 2.03 1.93 1.90 1.83 1.48 1.44 1.54 1.63 1.71 1.84